Theta_e
258 258 258 258 258 258 258 258 258 258 258 258 258 258 258 258 258 258 259 260 260 261 262 262 261 262 262 262 261 261 261 261 261 261 261 261 261 261 261 262 263 264 264 264 264 264 265 265 266 266 268 269 267 267 267 267 268 268 269 269 269 270 271
257 257 257 257 257 257 257 257 257 257 257 257 257 257 257 257 258 258 258 259 260 261 261 261 261 261 261 261 261 261 261 261 260 260 260 260 260 260 260 261 262 263 264 263 263 264 264 264 265 265 267 267 266 265 265 266 267 267 268 268 268 268 270
257 256 256 256 256 256 256 256 256 257 256 256 257 257 257 257 257 258 258 259 260 260 261 261 261 261 261 261 260 260 260 260 260 260 259 259 260 259 259 260 261 262 263 263 263 263 263 263 264 265 265 266 265 264 264 265 265 266 266 267 267 267 268
256 256 256 256 256 256 256 256 256 256 256 256 256 256 256 257 257 257 258 259 260 260 260 260 260 261 261 260 260 259 259 259 259 259 259 259 259 259 259 259 260 260 261 262 262 263 263 263 263 264 264 264 264 263 263 264 264 265 265 266 267 267 267
256 256 256 256 256 256 256 256 256 256 256 256 256 256 256 256 257 258 259 259 259 260 260 260 260 260 260 260 259 259 259 259 258 258 258 258 258 259 259 258 259 259 260 261 262 262 262 262 263 263 263 264 263 263 263 263 263 264 264 264 265 266 266
256 256 256 256 256 256 256 256 256 256 256 256 256 256 256 256 257 258 258 259 259 260 260 260 260 260 260 259 259 258 258 258 258 258 258 258 258 258 258 258 258 259 259 260 261 262 262 262 262 263 263 263 262 262 262 263 263 263 263 263 264 265 265
257 256 256 256 256 256 256 256 256 256 256 256 256 256 256 257 257 258 258 259 259 260 260 260 260 259 259 259 258 258 257 258 258 258 258 258 258 258 258 257 258 258 259 260 261 261 261 261 262 262 262 262 262 262 262 263 263 262 262 263 263 263 263
256 256 256 256 256 256 255 255 255 256 255 256 256 256 256 256 257 258 258 259 259 260 260 259 259 259 258 258 257 257 257 257 257 257 257 257 257 257 257 257 257 258 259 260 260 260 260 261 262 262 262 262 261 261 262 262 262 262 262 262 262 262 262
255 256 255 256 256 256 255 255 255 255 255 255 256 256 256 257 258 258 259 259 260 260 259 259 258 258 257 257 257 256 256 256 256 256 257 257 257 257 256 257 257 258 259 259 259 260 260 261 261 261 261 261 261 261 262 262 261 262 262 262 261 261 261
255 255 255 255 256 256 255 255 255 256 255 255 256 257 257 258 258 259 259 259 259 259 258 258 257 257 257 256 256 256 256 256 256 256 256 256 256 256 256 256 257 258 259 259 259 259 260 260 261 261 261 261 261 261 261 261 261 261 261 261 260 260 261
255 255 255 255 255 255 255 255 256 256 255 255 257 258 258 259 259 259 259 259 258 258 257 257 256 256 256 256 256 255 255 255 255 255 255 255 255 255 255 256 257 258 259 259 259 259 260 260 260 260 261 261 261 261 261 261 261 260 260 260 260 260 260
255 255 255 255 255 255 256 256 256 256 255 255 257 258 259 259 259 259 259 258 257 257 256 256 256 255 255 255 255 255 255 255 255 254 254 254 254 254 255 256 257 258 258 258 259 259 259 260 260 260 261 260 261 261 260 260 260 259 259 259 259 259 260
255 255 255 255 255 255 256 256 256 256 255 255 257 258 259 259 259 258 258 257 256 256 256 255 255 255 255 255 254 254 254 254 254 254 254 254 254 254 255 256 256 257 257 258 258 258 259 259 260 260 260 260 260 260 260 260 259 259 258 258 259 259 259
255 255 255 255 255 255 256 256 257 256 255 255 257 258 258 258 258 257 257 256 255 255 255 255 255 254 254 254 254 254 254 254 254 254 254 254 255 255 255 256 256 256 257 257 257 258 258 259 260 260 260 259 260 260 260 259 258 258 258 258 258 258 258
254 254 255 255 254 255 256 257 257 256 255 255 256 257 258 257 257 256 255 255 255 255 255 254 254 254 254 254 254 254 253 253 253 253 253 254 255 255 255 255 256 256 256 257 257 258 258 259 259 259 259 259 259 259 259 258 257 257 257 257 257 257 258
253 253 254 255 255 254 256 257 257 256 255 255 255 256 256 256 255 255 255 255 254 254 254 254 253 253 253 253 253 253 253 253 253 253 254 254 255 255 255 255 256 256 256 257 258 258 259 259 259 259 258 258 258 258 257 257 256 256 257 256 256 257 257
253 253 253 254 255 254 255 257 257 256 256 255 255 255 255 254 254 254 254 254 254 254 253 253 253 253 253 253 253 253 253 253 253 253 254 255 255 255 255 255 255 255 256 256 257 257 257 257 257 257 257 257 257 256 256 255 255 256 256 255 255 255 256
253 254 254 254 255 254 254 256 258 257 256 255 255 254 254 254 254 254 254 254 253 253 253 253 253 253 252 252 252 252 253 253 254 254 254 254 254 255 255 255 255 255 255 255 255 256 256 256 256 256 255 255 255 255 255 255 255 255 255 255 255 255 255
253 254 255 254 255 255 254 255 257 257 256 256 255 254 254 254 254 253 253 253 253 253 252 252 253 253 252 252 252 252 253 254 254 254 254 254 255 254 254 254 254 254 254 254 254 254 255 254 254 254 254 254 254 254 254 254 254 254 254 254 254 255 254
252 253 255 255 254 255 255 255 256 257 257 255 255 254 254 253 253 253 253 252 252 252 252 252 252 252 252 252 252 252 252 253 254 254 254 255 255 254 253 254 254 254 254 253 253 253 253 253 253 253 253 253 254 254 254 254 254 254 254 254 254 254 254
252 252 254 255 255 254 255 255 255 257 257 256 255 254 253 252 252 252 252 252 251 251 251 251 251 252 252 252 252 251 251 252 254 255 255 255 254 253 253 253 253 253 253 253 252 252 252 253 253 252 252 253 253 253 253 253 254 254 254 254 254 254 254
252 251 253 255 255 254 255 255 255 255 256 256 255 254 253 252 252 252 251 251 251 251 251 251 251 251 252 251 251 251 251 252 254 254 254 254 253 253 253 253 253 253 252 252 252 251 251 252 252 252 252 253 253 253 253 253 253 253 253 253 254 253 253
251 250 251 253 255 255 255 255 255 254 255 255 255 254 253 252 252 251 251 251 251 251 251 251 251 251 251 251 251 251 251 252 253 253 252 252 252 252 252 252 252 252 251 251 251 251 250 251 252 252 252 253 253 253 253 253 253 253 253 253 253 253 253
251 250 250 251 253 255 256 255 254 254 254 254 254 254 253 253 252 252 251 251 251 251 251 251 251 251 251 251 251 251 251 251 251 251 251 251 251 251 251 251 251 251 251 251 250 250 250 251 252 252 252 252 253 253 253 253 253 253 253 253 253 253 253
250 250 250 250 251 253 256 256 255 254 254 254 253 253 253 253 252 252 251 251 251 251 251 251 251 251 250 250 250 251 251 251 251 251 251 251 251 251 251 251 251 250 250 250 250 249 249 250 252 252 252 252 252 252 252 252 252 252 252 253 253 253 253
250 249 249 250 250 252 253 254 254 254 254 253 253 252 253 252 252 252 251 251 251 251 251 251 251 251 250 250 250 250 250 250 251 251 251 251 250 250 250 250 250 250 250 249 249 249 249 250 251 252 251 251 252 252 252 252 252 252 252 252 252 252 252
250 249 249 250 250 251 251 252 253 254 254 253 252 252 252 252 251 251 251 250 251 251 251 251 251 251 251 250 250 250 250 250 250 250 250 250 250 250 250 250 250 250 249 249 249 249 249 250 251 251 251 251 252 252 252 252 252 252 252 252 252 251 252
250 250 250 250 250 250 250 250 252 253 253 252 252 252 251 251 251 251 250 250 251 251 251 251 250 250 250 250 250 250 250 250 250 250 250 250 250 250 250 250 250 249 249 249 249 249 249 249 250 250 251 251 251 252 252 252 251 251 251 251 251 251 251
251 251 251 250 250 250 249 249 252 254 253 252 251 251 250 250 250 251 251 251 251 251 251 251 251 250 250 250 250 250 250 250 250 250 250 250 250 250 250 250 249 249 249 249 249 249 249 249 249 249 250 250 251 251 252 251 251 251 251 251 251 250 250
252 252 252 250 251 251 250 250 252 253 252 251 251 251 250 250 251 251 251 251 251 251 251 251 251 251 251 250 250 250 250 250 250 250 250 250 250 250 249 249 249 249 249 249 249 248 248 248 248 248 249 250 250 251 251 251 251 251 251 250 250 250 250
252 252 251 250 250 251 251 251 251 251 251 251 251 251 250 251 251 251 251 251 251 251 251 251 251 251 250 250 250 250 250 250 250 250 250 249 249 249 249 249 249 249 249 249 249 248 248 248 248 248 248 249 249 250 250 251 251 250 250 250 250 250 250
251 251 251 251 250 250 250 251 251 250 250 250 250 250 250 250 250 250 251 250 250 250 250 250 250 250 250 250 250 250 250 250 250 250 249 249 249 249 249 249 249 249 249 249 248 248 248 248 248 248 248 248 249 249 250 250 250 250 250 250 250 250 249
251 251 250 250 250 250 250 250 250 250 250 250 250 250 250 250 250 250 250 250 250 250 250 250 250 250 250 250 250 250 250 250 250 249 249 249 249 249 249 249 249 249 249 248 248 248 248 248 248 248 248 248 248 249 249 249 249 250 250 249 249 249 249
252 251 250 250 250 250 249 250 250 250 250 250 250 250 250 250 250 250 250 250 250 249 249 249 249 249 250 249 249 250 249 249 249 249 249 249 249 249 249 248 248 248 248 248 248 248 248 248 248 248 248 248 248 248 248 249 249 249 249 249 249 249 249
251 251 250 250 250 249 249 250 250 250 250 250 250 249 249 249 249 249 249 249 249 249 249 249 249 249 249 249 249 249 249 249 249 249 249 249 249 248 248 248 248 248 248 248 248 248 248 248 248 247 247 247 248 248 248 248 248 248 249 249 249 248 249
249 250 250 250 250 249 249 250 250 249 250 249 249 249 249 249 249 249 249 249 249 249 249 249 249 249 249 249 249 249 249 249 249 249 249 249 248 248 248 248 248 248 247 247 247 247 247 247 247 247 247 247 247 247 247 248 248 248 248 248 248 248 248
Wind_Speed
31 31 31 30 30 29 29 29 28 28 28 29 30 29 29 29 29 28 26 25 24 22 21 21 22 23 22 20 21 22 23 25 25 22 19 19 20 19 17 18 20 15 19 27 23 21 24 24 28 29 23 24 30 31 31 31 29 27 26 25 25 25 24
31 31 30 30 30 29 28 28 28 28 28 29 30 30 30 29 29 28 26 25 26 25 23 23 23 23 22 21 21 22 23 25 26 23 21 21 20 21 20 17 20 20 19 25 26 22 22 23 25 25 23 24 29 30 31 31 29 27 26 25 25 25 23
30 30 30 30 30 29 29 29 29 28 28 28 30 30 31 30 29 27 26 26 27 27 26 26 24 22 22 21 21 23 23 24 26 24 22 23 21 22 22 18 18 21 20 25 27 23 22 24 23 22 22 24 27 29 30 29 26 25 26 26 25 25 24
30 30 31 31 31 30 30 29 29 29 29 29 30 30 31 30 28 26 26 27 28 28 27 25 23 21 21 21 22 24 25 24 26 25 22 23 23 22 23 21 18 20 21 24 27 24 22 23 23 22 23 24 25 28 30 26 23 23 27 27 25 24 24
31 31 32 32 31 31 30 30 29 29 30 30 29 30 30 29 27 26 26 28 28 26 25 23 23 22 21 21 22 24 25 25 26 25 23 23 24 23 23 23 21 21 22 23 26 26 23 23 23 23 23 22 25 29 30 25 21 23 27 28 26 25 25
32 32 32 32 31 30 30 30 29 29 29 30 30 30 28 26 26 27 28 28 26 24 25 25 24 23 21 20 22 23 25 26 26 25 25 24 25 24 23 24 23 22 23 24 25 24 24 24 23 23 22 22 23 27 27 25 23 23 25 26 25 27 28
33 32 32 32 31 31 30 30 30 30 29 29 30 29 28 26 27 29 29 28 26 26 27 26 23 21 21 21 23 24 24 25 26 26 26 25 25 24 24 24 24 23 24 24 23 22 23 25 24 21 22 23 23 23 21 21 23 24 26 24 22 28 31
33 33 32 32 32 31 31 31 31 30 30 29 29 28 28 28 29 29 29 28 27 27 26 24 21 20 22 24 24 24 23 24 26 27 27 26 24 23 24 24 24 23 23 22 21 22 23 24 22 20 22 23 21 21 19 18 20 23 24 22 23 29 29
32 33 33 33 32 32 32 32 31 31 30 29 28 29 29 29 29 28 28 27 27 25 23 21 22 23 25 26 25 24 25 26 25 24 26 26 24 24 24 24 24 23 22 21 20 20 20 20 19 19 22 20 18 20 20 18 20 20 20 23 27 29 25
33 33 33 34 34 33 33 33 32 31 30 28 28 29 29 29 29 28 28 27 26 24 22 22 24 26 26 26 26 26 27 28 26 23 24 25 24 24 25 25 25 23 21 20 19 18 19 18 17 19 21 19 19 20 18 18 20 18 19 24 25 24 25
34 34 34 34 34 34 34 33 33 31 29 27 27 27 27 28 29 28 27 26 24 23 24 25 26 26 26 26 27 27 27 27 27 26 25 25 24 24 23 23 24 23 20 19 20 20 19 18 18 21 20 18 19 18 17 19 19 17 19 21 17 16 23
35 35 34 34 34 35 34 34 33 31 29 27 27 27 27 28 29 28 26 24 23 25 27 27 27 28 28 28 27 27 27 27 28 28 27 26 24 23 21 21 22 22 21 20 21 20 19 18 20 20 17 17 19 19 20 20 18 16 18 18 16 15 20
35 35 34 34 35 35 35 34 33 31 29 27 27 27 27 28 28 27 27 26 27 29 28 28 29 30 30 29 27 27 27 28 29 28 26 24 22 20 19 18 19 20 20 21 22 21 19 20 20 18 16 18 20 22 23 20 18 17 18 18 18 19 23
36 36 35 35 35 36 37 35 33 32 29 27 27 27 27 27 28 28 29 29 30 30 29 30 30 30 30 30 29 29 29 28 28 27 26 24 22 21 20 19 19 20 21 21 22 22 21 21 21 20 20 21 22 22 22 20 18 19 20 21 21 22 25
35 36 36 36 36 37 38 36 34 32 29 27 27 27 27 27 28 29 30 31 29 29 31 31 31 30 30 32 33 32 30 27 26 26 26 25 25 24 23 22 22 22 22 21 21 22 23 23 23 22 22 22 22 23 22 21 20 21 22 23 23 22 21
35 35 37 37 36 37 38 38 35 32 30 28 27 27 27 28 29 30 30 30 30 30 32 31 30 30 31 34 35 33 28 24 23 24 25 25 25 25 25 25 24 22 21 20 20 21 22 22 22 23 24 25 25 24 23 22 22 22 20 19 18 17 16
37 36 36 37 36 36 38 39 36 33 31 29 27 27 28 29 30 30 30 31 32 32 32 32 31 31 32 33 32 30 26 22 22 24 24 25 27 28 28 26 24 21 19 19 20 22 23 25 26 27 29 30 27 22 20 19 18 17 15 14 12 9 11
38 38 37 37 37 36 37 39 38 34 33 30 27 26 27 29 30 30 31 32 33 33 33 34 33 31 30 30 29 27 25 23 23 24 25 27 29 28 25 22 20 20 21 23 24 26 28 29 30 30 29 28 23 19 16 14 13 13 13 13 10 8 12
39 40 39 38 38 37 37 38 38 35 33 32 28 25 26 27 29 31 32 33 34 35 34 34 34 32 29 28 27 25 24 23 23 24 25 28 26 23 21 21 22 24 25 25 26 28 29 30 29 27 25 23 19 16 14 13 12 12 12 12 12 11 11
38 40 41 40 40 39 37 37 37 36 34 32 30 27 25 26 28 30 32 33 34 35 36 35 33 31 30 29 29 26 24 23 23 23 25 26 22 20 22 26 26 25 24 24 26 28 30 30 29 25 22 20 18 16 15 14 14 13 12 12 13 13 10
38 40 42 42 40 40 39 38 37 36 34 32 31 29 25 25 27 29 32 34 34 34 34 33 32 32 32 31 31 29 27 25 24 23 24 25 23 24 26 26 25 25 25 25 27 29 30 30 29 26 22 19 17 16 15 14 13 13 13 12 13 13 12
39 39 42 43 42 41 41 39 37 36 35 33 32 30 27 27 28 28 29 31 33 33 32 33 34 34 33 32 32 31 28 27 26 24 25 27 27 26 25 23 24 26 26 27 28 28 29 30 30 28 24 19 16 15 14 13 13 12 12 12 13 12 13
38 37 39 43 44 43 42 40 39 38 36 35 33 32 30 29 29 27 26 29 33 34 34 35 34 34 34 33 32 30 27 26 26 26 27 27 25 24 23 23 25 26 26 27 28 28 29 31 30 28 25 20 16 15 14 14 13 12 12 12 12 12 12
37 35 37 40 44 46 44 42 40 40 39 37 35 34 32 31 29 27 26 29 33 35 35 35 35 35 34 32 30 28 27 28 28 28 29 28 26 25 24 23 24 25 25 27 28 28 29 31 31 28 25 21 17 15 15 15 15 13 12 12 12 12 13
37 35 35 37 41 45 46 44 43 42 41 39 37 35 33 31 29 27 26 29 32 34 35 36 36 35 34 32 31 31 31 31 32 32 31 30 28 26 24 24 24 26 26 28 29 28 29 30 30 28 25 21 18 17 17 16 15 14 12 12 14 15 15
36 35 35 37 39 42 44 45 44 44 43 40 37 35 33 31 29 28 29 30 33 35 35 36 36 36 35 35 34 33 33 34 34 33 32 29 27 25 26 27 28 29 29 30 29 29 29 30 28 27 25 22 19 19 18 17 16 15 14 14 14 16 17
36 35 34 36 39 40 42 44 45 45 43 39 35 34 33 32 32 32 32 32 34 34 36 37 37 37 37 37 36 35 34 34 34 33 32 31 30 30 30 31 31 30 30 30 30 30 30 29 26 25 25 23 21 20 19 17 16 16 16 15 14 15 18
37 37 36 36 39 39 39 42 46 45 40 36 34 34 34 34 34 34 33 34 35 35 36 36 37 36 35 34 34 34 34 33 34 34 34 34 33 32 31 30 29 28 28 30 30 30 30 29 27 25 24 23 22 22 20 17 16 17 17 15 13 14 16
41 42 39 38 40 38 36 40 46 45 41 39 39 38 36 35 35 34 34 35 35 34 35 35 34 33 32 30 30 30 31 31 31 31 32 32 32 31 30 29 28 28 28 29 28 28 29 29 27 26 23 21 22 22 20 17 16 16 16 15 14 14 16
41 43 40 40 43 42 39 43 48 48 45 45 44 41 38 37 36 35 35 35 33 33 34 34 32 32 31 29 28 29 29 29 28 29 30 30 30 29 29 28 28 29 29 27 26 26 27 27 27 26 24 21 22 22 20 17 16 16 15 15 15 16 17
40 42 40 40 43 45 44 45 47 47 45 45 43 41 38 37 36 36 35 34 32 33 33 32 31 31 31 30 29 30 30 30 28 28 29 29 29 28 28 28 29 29 29 27 26 25 25 25 25 25 24 22 22 22 21 19 17 15 16 17 16 17 18
42 42 40 38 38 40 42 44 43 43 43 42 41 40 39 37 37 38 37 34 32 33 34 32 30 30 30 29 29 29 30 29 29 29 29 28 28 29 28 28 29 29 27 26 26 26 25 24 24 24 24 23 22 22 21 20 18 17 17 17 17 17 18
41 38 37 36 35 35 37 40 41 41 41 40 39 38 37 37 37 38 37 33 32 32 32 30 30 30 30 29 29 29 30 29 29 29 29 28 28 30 30 29 29 27 26 27 27 27 26 26 25 24 24 23 22 22 22 21 19 18 17 18 18 18 18
44 40 37 37 36 35 36 39 40 40 39 39 38 37 36 36 37 36 35 32 31 32 31 29 29 29 30 30 30 30 29 30 30 29 29 28 29 30 31 30 28 27 27 28 28 28 28 27 26 25 24 24 23 22 22 22 21 19 18 19 19 19 18
48 45 41 40 39 38 38 38 37 36 36 36 36 36 34 34 34 33 30 29 28 29 29 29 28 29 29 29 30 29 29 29 29 29 28 28 28 29 30 29 28 27 28 29 29 29 29 28 27 26 25 24 24 23 22 22 21 20 20 20 20 19 19
47 47 45 44 40 36 35 34 34 35 36 36 35 33 31 30 30 29 28 27 27 27 28 29 29 29 29 29 29 29 29 29 29 29 29 28 28 28 28 28 28 27 27 27 28 29 29 28 27 27 26 24 24 25 24 23 22 21 20 20 20 20 19
Wind_Direction
338 338 337 336 334 333 331 330 328 327 326 325 324 324 324 325 325 323 320 319 317 316 316 314 309 305 307 315 319 322 328 329 330 329 318 315 316 313 312 309 301 293 294 301 308 311 313 320 324 326 325 322 325 330 331 334 336 337 340 342 341 339 339
336 336 336 335 334 333 331 330 328 327 325 324 323 323 323 324 324 322 320 320 320 321 320 318 311 303 303 310 314 317 323 325 327 328 319 314 316 312 311 310 304 299 296 300 308 314 316 321 325 321 321 325 328 331 333 334 335 336 338 340 343 343 340
335 335 335 335 334 333 332 331 329 327 325 324 323 322 322 323 323 322 320 320 321 322 321 317 310 302 303 309 312 314 319 322 323 324 318 312 313 312 310 309 304 300 298 299 304 312 318 322 323 318 318 324 325 329 334 335 332 334 337 339 342 345 345
335 335 334 334 334 333 332 331 329 327 325 324 323 323 322 323 322 322 321 321 322 322 318 311 303 301 304 308 310 312 316 320 320 320 317 311 310 310 309 308 305 299 298 298 300 307 315 318 319 316 316 322 325 328 334 335 331 331 336 340 341 344 349
334 334 333 333 333 332 331 330 328 326 324 323 322 322 323 322 322 323 323 322 321 320 314 305 299 300 303 306 308 312 315 317 319 317 314 309 309 309 307 307 306 299 297 297 296 302 310 314 315 314 316 323 327 329 333 334 332 332 337 341 341 344 350
333 333 332 332 332 331 329 328 327 324 323 323 322 322 323 323 324 324 323 321 318 314 306 300 297 298 300 304 308 313 315 317 317 314 310 308 308 306 305 307 305 301 300 298 294 299 307 312 313 313 316 323 328 330 331 330 331 335 340 341 341 341 347
331 331 331 331 330 329 327 326 325 324 324 323 321 322 323 324 325 323 320 317 311 304 298 295 293 294 300 307 312 315 317 316 314 309 306 306 305 304 305 306 305 304 302 298 297 302 306 308 309 311 314 320 327 330 330 330 331 334 338 342 341 338 341
330 329 330 330 329 328 326 324 324 324 325 323 323 324 321 319 320 318 314 310 306 300 294 291 291 297 304 309 312 314 315 312 310 306 303 303 302 303 305 306 304 303 301 299 301 305 305 306 307 311 315 319 326 331 331 333 333 329 331 337 335 334 338
328 328 328 329 328 326 325 324 323 324 325 324 323 322 316 312 312 311 306 305 305 301 294 291 296 303 307 309 310 311 311 310 309 304 301 301 302 303 305 305 302 299 298 299 302 303 305 305 304 311 316 317 325 328 324 328 331 324 326 332 329 331 338
327 327 327 327 326 325 324 323 323 325 326 323 316 313 310 308 307 306 303 304 304 299 295 296 302 306 308 308 308 309 309 310 311 306 299 296 297 300 301 301 299 296 295 298 300 302 304 302 303 311 313 312 319 323 321 328 331 325 328 333 329 329 335
326 326 325 325 324 324 323 323 323 326 325 316 309 307 307 306 306 305 304 303 300 298 300 304 306 306 306 306 306 307 308 309 312 311 304 297 294 295 295 294 295 295 296 298 298 299 301 300 301 307 311 315 320 322 324 328 328 327 331 333 329 326 327
324 324 324 323 322 321 321 321 323 325 322 312 307 307 306 305 306 305 304 303 303 304 305 306 305 305 305 304 304 305 307 309 313 313 309 303 299 296 292 288 290 293 296 299 299 298 300 300 300 304 314 325 324 322 324 324 322 326 329 325 320 315 313
321 322 322 321 320 319 319 320 322 324 321 312 307 306 306 305 305 303 303 304 305 305 305 305 306 305 303 301 301 303 307 310 312 313 312 311 308 303 298 292 290 293 295 297 296 294 295 297 300 306 318 322 320 319 321 319 318 323 322 315 313 308 306
319 320 319 319 318 317 316 318 320 322 319 310 305 306 305 303 300 298 298 299 300 301 301 302 305 304 300 297 298 303 307 309 311 312 313 315 315 313 311 304 297 296 294 293 294 293 294 296 299 306 315 317 318 319 319 318 318 320 316 309 305 303 305
316 316 317 316 315 314 314 317 319 319 316 308 303 305 304 299 297 295 295 296 296 296 296 299 302 299 295 294 296 301 305 306 308 309 309 311 312 311 308 302 297 295 292 292 294 293 293 294 296 303 311 315 318 318 315 314 312 311 309 304 302 304 306
312 312 313 314 313 311 312 315 317 317 315 309 304 303 302 298 297 296 294 294 293 292 293 296 297 295 294 295 296 299 302 301 301 303 302 303 305 303 299 296 295 294 290 289 291 290 291 294 297 303 306 308 313 315 312 310 307 307 307 307 308 312 313
311 309 309 310 311 309 309 313 316 315 314 312 306 302 300 297 296 295 292 291 291 292 292 293 293 293 295 296 297 299 300 296 294 296 297 297 299 298 296 295 296 293 285 284 286 286 288 292 295 299 300 301 307 312 313 312 312 314 315 315 316 315 315
309 308 307 307 308 308 306 309 314 314 313 313 308 300 297 297 295 292 290 290 291 292 292 292 293 294 294 295 296 298 296 292 291 292 293 296 297 295 291 290 293 293 288 286 286 285 285 288 291 295 298 301 304 307 308 309 311 314 316 314 310 307 313
307 307 308 307 307 307 305 306 312 313 312 312 309 300 294 293 291 289 289 290 291 292 292 292 293 294 294 294 295 294 291 289 288 289 292 294 291 286 284 289 296 299 297 293 290 289 290 292 295 297 299 301 301 299 297 295 294 301 308 306 301 303 313
305 305 307 307 306 307 305 305 309 312 311 309 307 302 295 289 287 287 287 289 290 291 292 293 293 294 295 296 296 295 290 286 284 286 290 290 285 284 292 298 300 299 294 290 290 291 292 294 295 296 297 298 297 294 291 288 285 288 293 294 295 298 297
305 304 306 307 306 306 306 305 306 309 310 308 306 304 296 285 282 282 284 286 288 289 290 290 291 293 295 296 296 296 292 286 283 283 284 283 283 289 296 298 296 292 289 289 291 292 292 293 294 294 294 295 294 292 292 289 286 284 282 281 285 290 287
305 304 305 307 306 305 306 306 305 306 308 307 305 303 296 287 283 282 282 284 285 284 284 286 288 291 293 295 296 295 291 287 285 283 279 277 280 285 289 289 287 286 287 289 292 293 293 293 293 293 294 293 290 289 291 291 289 287 282 276 277 281 283
304 303 303 305 306 306 306 306 306 305 305 305 304 302 298 293 288 284 279 277 278 280 282 285 287 289 292 295 295 292 288 285 286 285 281 280 280 281 282 282 281 282 285 288 290 292 293 292 291 292 292 292 289 287 289 291 291 290 284 276 272 275 280
301 300 299 301 304 306 307 307 306 305 304 303 303 301 299 296 292 287 280 275 276 279 281 284 287 289 292 292 290 286 284 283 282 282 282 282 282 281 279 277 276 277 281 284 287 288 288 288 289 289 290 291 292 289 288 290 292 291 285 275 270 274 279
298 297 296 296 298 301 305 306 305 304 303 302 301 300 300 299 297 293 286 280 279 281 283 286 288 289 288 286 284 283 283 281 280 280 282 284 284 281 278 275 274 276 278 280 282 282 283 284 286 287 290 292 290 285 285 289 291 289 282 275 275 278 278
294 293 293 293 293 296 301 303 303 302 302 301 301 301 302 302 299 296 292 287 285 286 287 288 289 288 287 286 285 284 282 281 281 282 282 281 278 275 274 274 275 277 277 277 278 278 279 282 284 286 287 287 282 278 282 287 289 286 282 278 279 281 279
292 290 289 290 292 294 297 299 299 299 300 301 302 303 305 303 301 299 296 291 289 289 290 290 291 290 289 288 286 284 280 278 279 278 276 275 273 272 273 275 276 278 278 277 277 278 279 283 285 284 283 281 277 275 277 282 285 284 283 282 281 281 282
291 290 289 289 291 292 294 294 295 297 299 302 303 304 304 302 300 299 297 294 293 294 294 293 291 289 287 284 281 280 277 274 273 273 273 273 273 274 274 275 275 275 275 275 276 277 279 282 283 282 280 278 275 272 272 277 280 280 280 280 276 275 282
290 290 290 289 289 288 286 286 292 297 300 300 300 298 296 294 293 292 291 291 292 294 292 289 287 284 282 279 277 276 275 273 272 272 272 272 273 274 274 273 272 270 271 274 275 276 278 280 281 281 279 276 272 268 268 271 275 276 277 275 270 270 279
291 293 293 288 287 287 283 282 290 298 301 300 299 296 292 289 287 287 286 286 288 287 284 281 280 278 276 275 274 273 272 272 271 271 271 272 272 271 271 272 271 270 272 274 273 273 276 278 280 280 279 275 269 267 266 265 268 272 270 265 265 270 277
296 297 294 287 286 289 289 288 291 296 298 299 299 296 293 290 289 287 286 286 287 284 279 275 274 274 273 272 271 270 270 271 271 270 270 271 272 270 269 268 269 271 273 272 271 271 272 274 275 276 277 275 271 268 266 264 264 264 260 257 259 266 274
299 298 296 292 287 287 289 291 293 295 296 296 295 293 291 290 289 288 287 286 284 280 275 272 271 271 272 272 271 270 271 272 271 270 270 270 271 271 268 266 268 271 273 271 270 269 269 269 270 272 273 274 272 269 266 264 262 259 255 253 254 259 267
302 300 299 297 294 289 288 291 294 296 295 294 293 292 291 290 289 289 288 286 281 276 273 271 271 271 271 272 272 272 274 274 273 272 271 269 269 270 270 269 270 272 270 269 268 268 267 267 268 268 269 270 268 265 262 261 262 260 254 249 249 254 260
306 304 302 300 299 297 295 295 296 297 297 296 295 295 295 292 289 287 285 282 276 273 271 271 270 271 271 272 272 273 273 273 273 273 272 270 268 270 271 272 270 267 265 265 266 265 265 265 266 265 264 264 263 260 258 258 258 255 249 245 246 250 257
304 304 304 302 301 301 300 301 301 301 301 301 300 299 296 291 287 284 282 279 275 272 272 271 271 271 271 272 273 273 273 273 273 274 273 271 270 270 271 271 269 265 263 264 264 263 263 264 265 264 262 261 259 256 252 252 253 251 247 246 247 250 255
299 303 304 304 303 304 305 305 305 304 303 301 299 297 293 287 283 282 282 281 278 276 275 274 273 273 273 273 273 274 274 273 273 273 273 272 271 270 269 269 267 265 263 262 262 262 262 262 262 262 261 258 256 254 251 251 251 250 248 248 249 250 253